Location: Newark
(54.6833°N, 25.2833°E)
Time: 08:03:49
(UTC+00:00)

Tiros 1 despin weight - Pass Details

Date: 21 November 2019
Orbit: 594 x 642 km, 48.2° (Epoch: 15 December)

Event Time Altitude Azimuth Distance (km) Brightness Sun altitude
Rises 16:32:12 0° 270° (W) 2,848 ? -20.1°
Reaches altitude 10° 16:35:40 10° 242° (WSW) 1,951 ? -20.6°
Maximum altitude 16:37:38 13° 215° (SW) 1,779 ? -20.9°
Drops below altitude 10° 16:39:37 10° 189° (S) 1,960 ? -21.2°
Enters shadow 16:42:33 - 164° (SSE) 2,695 ? -21.6°
Sets 16:43:07 0° 161° (SSE) 2,873 - -21.7°
